Location: Haieshausen
(51.8387°N, 9.9720°E)
Time: 04:11:58
(UTC+00:00)

Cosmos 1190 Rocket - Pass Details

Date: 14 July 2020
Orbit: 756 x 781 km, 74.1° (Epoch: 10 August)

Event Time Altitude Azimuth Distance (km) Brightness Sun altitude
Exits shadow 02:06:37 11° 225° (SW) 2,257 5.8 -8.6°
Maximum altitude 02:11:36 52° 301° (WNW) 952 4.5 -8.1°
Drops below altitude 10° 02:16:45 10° 18° (NNE) 2,326 7.8 -7.6°
Sets 02:19:13 0° 24° (NNE) 3,261 9.0 -7.4°
